Torna al catalogo

OPS 4682 DEB

AttivoPO
NORAD 19964·DEBRIS·🇺🇸 United States

Lanciato Apr 3, 1965 da Vandenberg Space Force Base

Loading…

Prossimi Passaggi (prossime 24 ore)

TLE

AggiornatoSource: Space-Track

Epoca: Sep 12, 2026, 08:05 UTC

1 19964U 65027BA  26255.33708436  .00000677  00000-0  23180-2 0  9999
2 19964  90.2721  19.2170 0016049 311.2291  75.7420 12.97099833563360

Traccia OPS 4682 DEB in tempo reale con AllMySat

Download on the App Store